When you browse on this site, cookies collect data to enhance your experience and personalize the content and advertising you see.
Visit our Privacy Policy to learn more. By continuing to use the site, you agree to this use of cookies and data.
  • In Österreich
  • Länderverzeichnis
  • Für 7 Tage
  • Wassertemperatur
  • Wetterkarte
  • News
  • Widgets
  • user-avatar
    Anmelden

    Stündliche Wetter San-Tome

    Heute, 6 April, Montag

    Zeit Temperatur Niederschläge Wind Luftdruck Luftfeuchtigkeit
    00:00 +28°C° 0 mm 3 m/S 730 mmHg 82%
    01:00 +27°C° 0 mm 3 m/S 729 mmHg 82%
    02:00 +27°C° 0 mm 3 m/S 729 mmHg 81%
    03:00 +27°C° 0 mm 2 m/S 729 mmHg 80%
    04:00 +28°C° 0 mm 2 m/S 729 mmHg 80%
    05:00 +28°C° 0 mm 2 m/S 730 mmHg 79%
    06:00 +28°C° 0 mm 3 m/S 730 mmHg 81%
    07:00 +28°C° 0 mm 3 m/S 731 mmHg 79%
    08:00 +29°C° 0 mm 2 m/S 731 mmHg 77%
    09:00 +29°C° 0 mm 2 m/S 731 mmHg 75%
    10:00 +29°C° 0 mm 2 m/S 731 mmHg 75%
    11:00 +29°C° 0 mm 2 m/S 731 mmHg 75%
    12:00 +29°C° 0 mm 2 m/S 730 mmHg 73%
    13:00 +29°C° 0.3 mm 2 m/S 730 mmHg 74%
    14:00 +29°C° 0.3 mm 2 m/S 729 mmHg 75%
    15:00 +29°C° 0.3 mm 2 m/S 729 mmHg 75%
    16:00 +28°C° 1 mm 2 m/S 729 mmHg 77%
    17:00 +28°C° 1 mm 3 m/S 729 mmHg 78%
    18:00 +28°C° 1 mm 3 m/S 730 mmHg 79%
    19:00 +28°C° 0 mm 3 m/S 730 mmHg 78%
    20:00 +28°C° 0 mm 3 m/S 730 mmHg 76%
    21:00 +28°C° 0 mm 3 m/S 730 mmHg 75%
    22:00 +28°C° 0.1 mm 3 m/S 730 mmHg 76%
    23:00 +28°C° 0.1 mm 3 m/S 730 mmHg 77%

    Morgen, 7 April, Dienstag

    Zeit Temperatur Niederschläge Wind Luftdruck Luftfeuchtigkeit
    00:00 +28°C° 0.1 mm 4 m/S 730 mmHg 78%
    01:00 +28°C° 0 mm 4 m/S 730 mmHg 80%
    02:00 +27°C° 0 mm 4 m/S 729 mmHg 82%
    03:00 +27°C° 0 mm 4 m/S 728 mmHg 85%
    04:00 +27°C° 0 mm 3 m/S 729 mmHg 83%
    05:00 +27°C° 0 mm 2 m/S 729 mmHg 82%
    06:00 +28°C° 0 mm 2 m/S 730 mmHg 80%
    07:00 +28°C° 0 mm 2 m/S 730 mmHg 79%
    08:00 +28°C° 0 mm 1 m/S 730 mmHg 78%
    09:00 +28°C° 0 mm 1 m/S 731 mmHg 76%
    10:00 +29°C° 0 mm 1 m/S 730 mmHg 76%
    11:00 +29°C° 0 mm 1 m/S 730 mmHg 75%
    12:00 +29°C° 0 mm 1 m/S 730 mmHg 74%
    13:00 +29°C° 0 mm 2 m/S 729 mmHg 75%
    14:00 +29°C° 0 mm 2 m/S 729 mmHg 75%
    15:00 +28°C° 0 mm 3 m/S 728 mmHg 76%
    16:00 +28°C° 0 mm 2 m/S 728 mmHg 77%
    17:00 +28°C° 0 mm 2 m/S 728 mmHg 77%
    18:00 +28°C° 0 mm 2 m/S 729 mmHg 77%
    19:00 +28°C° 0 mm 2 m/S 729 mmHg 78%
    20:00 +28°C° 0 mm 2 m/S 729 mmHg 79%
    21:00 +28°C° 0 mm 3 m/S 729 mmHg 80%
    22:00 +28°C° 0 mm 2 m/S 729 mmHg 80%
    23:00 +28°C° 0 mm 1 m/S 729 mmHg 79%

    übermorgen, 8 April, Mittwoch

    Zeit Temperatur Niederschläge Wind Luftdruck Luftfeuchtigkeit
    00:00 +28°C° 0 mm 1 m/S 729 mmHg 79%
    01:00 +28°C° 0 mm 1 m/S 729 mmHg 80%
    02:00 +27°C° 0 mm 1 m/S 729 mmHg 80%
    03:00 +27°C° 0 mm 2 m/S 728 mmHg 80%
    04:00 +27°C° 0 mm 2 m/S 729 mmHg 80%
    05:00 +27°C° 0 mm 2 m/S 729 mmHg 79%
    06:00 +28°C° 0 mm 1 m/S 729 mmHg 79%
    07:00 +28°C° 0 mm 2 m/S 730 mmHg 77%
    08:00 +29°C° 0 mm 2 m/S 730 mmHg 74%
    09:00 +29°C° 0 mm 2 m/S 731 mmHg 72%
    10:00 +29°C° 0.2 mm 2 m/S 730 mmHg 73%
    11:00 +29°C° 0.2 mm 3 m/S 730 mmHg 73%
    12:00 +29°C° 0.2 mm 3 m/S 730 mmHg 73%
    13:00 +29°C° 0.1 mm 2 m/S 729 mmHg 73%
    14:00 +29°C° 0.1 mm 2 m/S 729 mmHg 73%
    15:00 +29°C° 0.1 mm 2 m/S 728 mmHg 72%
    16:00 +29°C° 0 mm 2 m/S 728 mmHg 74%
    17:00 +29°C° 0 mm 3 m/S 728 mmHg 76%
    18:00 +28°C° 0 mm 3 m/S 728 mmHg 78%
    19:00 +28°C° 0 mm 3 m/S 729 mmHg 79%
    20:00 +28°C° 0 mm 3 m/S 729 mmHg 80%
    21:00 +28°C° 0 mm 3 m/S 729 mmHg 81%
    22:00 +28°C° 0 mm 3 m/S 729 mmHg 82%
    23:00 +28°C° 0 mm 3 m/S 729 mmHg 83%

    9 April, Donnerstag

    Zeit Temperatur Niederschläge Wind Luftdruck Luftfeuchtigkeit
    00:00 +28°C° 0 mm 3 m/S 728 mmHg 84%
    01:00 +28°C° 0.1 mm 3 m/S 728 mmHg 84%
    02:00 +28°C° 0.1 mm 3 m/S 728 mmHg 85%
    03:00 +27°C° 0.1 mm 3 m/S 728 mmHg 85%
    04:00 +28°C° 0.3 mm 4 m/S 728 mmHg 85%
    05:00 +28°C° 0.3 mm 4 m/S 729 mmHg 85%
    06:00 +28°C° 0.3 mm 4 m/S 729 mmHg 85%
    07:00 +28°C° 0.1 mm 4 m/S 730 mmHg 84%
    08:00 +28°C° 0.1 mm 4 m/S 730 mmHg 83%
    09:00 +28°C° 0.1 mm 4 m/S 730 mmHg 81%
    10:00 +29°C° 0 mm 4 m/S 730 mmHg 81%
    11:00 +29°C° 0 mm 4 m/S 730 mmHg 80%
    12:00 +29°C° 0 mm 3 m/S 729 mmHg 80%
    13:00 +29°C° 0.5 mm 3 m/S 729 mmHg 80%
    14:00 +28°C° 0.5 mm 3 m/S 728 mmHg 81%
    15:00 +28°C° 0.5 mm 3 m/S 728 mmHg 81%
    16:00 +28°C° 0.9 mm 3 m/S 728 mmHg 82%
    17:00 +28°C° 0.9 mm 2 m/S 728 mmHg 82%
    18:00 +28°C° 0.9 mm 2 m/S 729 mmHg 82%
    19:00 +28°C° 0.1 mm 2 m/S 729 mmHg 82%
    20:00 +28°C° 0.1 mm 2 m/S 729 mmHg 81%
    21:00 +28°C° 0.1 mm 1 m/S 729 mmHg 81%
    22:00 +28°C° 0 mm 2 m/S 729 mmHg 81%
    23:00 +28°C° 0 mm 2 m/S 729 mmHg 81%

    10 April, Freitag

    Zeit Temperatur Niederschläge Wind Luftdruck Luftfeuchtigkeit
    00:00 +27°C° 0 mm 3 m/S 728 mmHg 81%
    01:00 +27°C° 0 mm 3 m/S 728 mmHg 82%
    02:00 +27°C° 0 mm 3 m/S 728 mmHg 82%
    03:00 +27°C° 0 mm 4 m/S 728 mmHg 82%
    04:00 +27°C° 0 mm 4 m/S 728 mmHg 82%
    05:00 +27°C° 0 mm 4 m/S 728 mmHg 82%
    06:00 +27°C° 0 mm 4 m/S 729 mmHg 82%
    07:00 +27°C° 0 mm 4 m/S 729 mmHg 81%
    08:00 +28°C° 0 mm 4 m/S 730 mmHg 80%
    09:00 +28°C° 0 mm 4 m/S 730 mmHg 79%
    10:00 +28°C° 0 mm 4 m/S 730 mmHg 79%
    11:00 +28°C° 0 mm 4 m/S 730 mmHg 79%
    12:00 +28°C° 0 mm 3 m/S 729 mmHg 78%
    13:00 +28°C° 0.2 mm 3 m/S 729 mmHg 79%
    14:00 +28°C° 0.2 mm 3 m/S 728 mmHg 80%
    15:00 +28°C° 0.2 mm 3 m/S 728 mmHg 81%
    16:00 +28°C° 0.2 mm 3 m/S 728 mmHg 81%
    17:00 +28°C° 0.2 mm 3 m/S 728 mmHg 82%
    18:00 +28°C° 0.2 mm 3 m/S 728 mmHg 82%
    19:00 +28°C° 0 mm 3 m/S 728 mmHg 83%
    20:00 +28°C° 0 mm 4 m/S 728 mmHg 83%
    21:00 +27°C° 0 mm 4 m/S 729 mmHg 84%
    22:00 +27°C° 0 mm 4 m/S 728 mmHg 84%
    23:00 +27°C° 0 mm 4 m/S 728 mmHg 85%

    11 April, Samstag

    Zeit Temperatur Niederschläge Wind Luftdruck Luftfeuchtigkeit
    00:00 +27°C° 0 mm 4 m/S 728 mmHg 85%
    01:00 +27°C° 0 mm 4 m/S 728 mmHg 85%
    02:00 +27°C° 0 mm 4 m/S 728 mmHg 85%
    03:00 +27°C° 0 mm 4 m/S 728 mmHg 84%
    04:00 +27°C° 0.1 mm 4 m/S 728 mmHg 84%
    05:00 +27°C° 0.1 mm 4 m/S 728 mmHg 84%
    06:00 +27°C° 0.1 mm 4 m/S 729 mmHg 83%
    07:00 +28°C° 0 mm 4 m/S 729 mmHg 82%
    08:00 +28°C° 0 mm 4 m/S 730 mmHg 81%
    09:00 +28°C° 0 mm 5 m/S 730 mmHg 79%
    10:00 +28°C° 0 mm 5 m/S 730 mmHg 78%
    11:00 +29°C° 0 mm 5 m/S 729 mmHg 77%
    12:00 +29°C° 0 mm 5 m/S 729 mmHg 76%
    13:00 +29°C° 0 mm 5 m/S 728 mmHg 77%
    14:00 +29°C° 0 mm 5 m/S 728 mmHg 77%
    15:00 +29°C° 0 mm 5 m/S 727 mmHg 78%
    16:00 +28°C° 0 mm 5 m/S 727 mmHg 79%
    17:00 +28°C° 0 mm 4 m/S 727 mmHg 80%
    18:00 +28°C° 0 mm 4 m/S 728 mmHg 81%
    19:00 +28°C° 0 mm 4 m/S 728 mmHg 82%
    20:00 +28°C° 0 mm 4 m/S 729 mmHg 82%
    21:00 +28°C° 0 mm 3 m/S 729 mmHg 83%
    22:00 +27°C° 0 mm 3 m/S 729 mmHg 83%
    23:00 +27°C° 0 mm 3 m/S 729 mmHg 83%
    Mehr zeigen